Weather History for KSET - November, 2011

Change the Weather History Date:

Friday, November 11, 2011

  Actual Average (KSTL) Record (KSTL)
Temperature  
Mean Temperature 44 °F 49 °F  
Max Temperature 62 °F 58 °F 85 °F (1989)
Min Temperature 27 °F 40 °F 18 °F (1950)
Degree Days  
Heating Degree Days 20 16  
Month to date heating degree days 154  
Since 1 July heating degree days 430  
Cooling Degree Days 0 0  
Month to date cooling degree days 0  
Year to date cooling degree days 1642  
Moisture  
Dew Point 27 °F    
Average Humidity 58    
Maximum Humidity 89    
Minimum Humidity 31    
Precipitation  
Precipitation 0.00 in 0.13 in 1.53 in (1992)
Month to date precipitation 1.35  
Year to date precipitation 35.56  
Snow  
Snow 0.00 in 0.00 in 1.00 in (1911)
Month to date snowfall 0.1  
Since 1 July snowfall 0.1  
Since 1 September snowfall 0.1  
Snow Depth -    
Sea Level Pressure  
Sea Level Pressure 29.97 in    
Wind  
Wind Speed 5 mph (South)    
Max Wind Speed 17 mph    
Max Gust Speed -    
Visibility 10 miles    
Events      
T = Trace of Precipitation, MM = Missing Value Source: NWS Daily Summary

Daily Weather History Graph

Daily Weather History Graph

Search for Another Location

Airport or City:

Trip Planner

Search our weather history database for the weather conditions in past years. The results will help you decide how hot, cold, wet, or windy it might be!

Date:

Astronomy

Nov. 11, 2011 Rise Set
Actual Time 6:39 AM CST 4:51 PM CST
Civil Twilight 6:11 AM CST 5:19 PM CST
Nautical Twilight 5:39 AM CST 5:51 PM CST
Astronomical Twilight 5:08 AM CST 6:22 PM CST
Moon 5:21 PM CST (11/11) 7:27 AM CST (11/11)
Length of Visible Light 11h 08m
Length of Day
10h 11m
Full, 99% of the Moon is Illuminated
Nov 11
Full
Nov 18
Last Quarter
Nov 25
New
Dec 2
First Quarter
Dec 10
Full

Hourly Weather History & Observations

Time (CST) Temp. Windchill Dew Point Humidity Pressure Visibility Wind Dir Wind Speed Gust Speed Precip Events Conditions
12:54 AM 28.0 °F 22.8 °F 21.9 °F 78% 30.15 in 10.0 mi SSW 4.6 mph - N/A   Clear
1:54 AM 28.0 °F - 21.9 °F 78% 30.14 in 10.0 mi Calm Calm - N/A   Clear
2:54 AM 28.9 °F - 26.1 °F 89% 30.13 in 10.0 mi Calm Calm - N/A   Clear
3:54 AM 28.0 °F - 21.9 °F 78% 30.13 in 10.0 mi Calm Calm - N/A   Clear
4:54 AM 27.0 °F 23.0 °F 21.9 °F 81% 30.12 in 10.0 mi ENE 3.5 mph - N/A   Clear
5:54 AM 28.9 °F - 23.0 °F 78% 30.11 in 10.0 mi Calm Calm - N/A   Clear
6:54 AM 27.0 °F - 23.0 °F 85% 30.09 in 10.0 mi Calm Calm - N/A   Clear
7:54 AM 34.0 °F 29.8 °F 26.1 °F 73% 30.07 in 10.0 mi SE 4.6 mph - N/A   Clear
8:54 AM 39.9 °F 33.9 °F 24.1 °F 53% 30.04 in 10.0 mi SSE 9.2 mph - N/A   Clear
9:54 AM 45.0 °F 38.5 °F 21.9 °F 40% 30.01 in 10.0 mi SSE 13.8 mph - N/A   Clear
10:54 AM 50.0 °F - 24.1 °F 36% 29.97 in 10.0 mi South 13.8 mph - N/A   Clear
11:54 AM 55.0 °F - 27.0 °F 34% 29.91 in 10.0 mi South 16.1 mph - N/A   Clear
12:54 PM 57.0 °F - 28.0 °F 33% 29.88 in 10.0 mi SSE 6.9 mph - N/A   Clear
1:54 PM 61.0 °F - 30.0 °F 31% 29.84 in 10.0 mi South 17.3 mph - N/A   Clear
3:54 PM 62.1 °F - 33.1 °F 34% 29.81 in 10.0 mi South 10.4 mph - N/A   Clear
4:54 PM 55.9 °F - 34.0 °F 44% 29.81 in 10.0 mi SSW 3.5 mph - N/A   Clear
5:54 PM 50.0 °F - 33.1 °F 52% 29.82 in 10.0 mi SSW 4.6 mph - N/A   Clear
6:54 PM 53.1 °F - 30.9 °F 43% 29.83 in 10.0 mi SSW 6.9 mph - N/A   Clear
7:54 PM 43.0 °F - 35.1 °F 74% 29.83 in 10.0 mi Calm Calm - N/A   Clear
8:54 PM 46.9 °F - 30.9 °F 54% 29.86 in 10.0 mi SW 3.5 mph - N/A   Clear
9:54 PM 44.1 °F 42.5 °F 32.0 °F 63% 29.86 in 10.0 mi SSW 3.5 mph - N/A   Clear
10:54 PM 46.9 °F - 30.0 °F 52% 29.86 in 10.0 mi WSW 4.6 mph - N/A   Clear